Wind_Speed
12 8 9 10 11 13 15 16 16 16 16 17 14 10 10 8 9 12 13 13 11 12 14 14 13 13 10 8 13 20 21 20 19 20 19 18 16 17 18 18 18 21 25 27 27 29 29 28 28 28 28 29 28 27 29 30 30 28 27 28 27 27 28 27 27 26 24 23 22 20 17 19 19 16 15 14 12 12 11 10 8 10 10 8 8 8
13 10 11 14 14 15 15 16 17 17 17 16 14 10 10 9 9 11 13 12 12 12 11 14 15 13 12 8 8 16 18 17 20 21 19 20 18 18 19 21 21 20 22 26 28 30 30 29 29 29 29 30 29 29 30 30 32 30 28 29 29 29 29 29 28 27 25 24 23 22 18 18 18 17 16 15 13 12 12 11 9 10 10 9 9 8
11 11 14 15 15 16 16 15 16 17 17 14 11 9 9 8 9 10 12 13 12 10 9 13 14 11 15 15 10 14 15 15 22 23 21 23 20 19 22 24 24 21 20 26 30 30 31 30 30 30 30 30 30 29 30 31 32 31 30 30 30 30 30 30 29 27 26 24 23 21 18 17 17 17 16 15 14 13 13 12 9 10 11 10 9 8
8 10 15 16 14 16 16 16 16 14 13 12 10 9 8 9 10 7 8 13 9 6 11 13 12 9 13 17 14 16 18 17 22 25 25 28 24 22 27 26 26 27 26 27 31 31 31 31 31 31 30 30 30 30 30 32 33 32 32 32 32 32 31 30 30 28 26 25 23 21 18 16 16 16 15 14 15 13 11 11 10 11 11 10 9 8
11 10 13 16 16 17 16 16 16 12 9 12 13 12 10 10 12 10 9 11 9 8 13 15 10 8 11 14 15 18 21 19 21 23 23 27 26 24 26 26 28 30 29 27 30 31 31 32 32 31 31 31 31 32 31 33 34 32 33 34 33 32 31 31 31 30 28 26 25 22 19 18 16 16 16 15 16 14 10 9 10 11 11 9 9 8
13 13 12 14 16 17 17 14 15 12 8 10 12 14 15 14 13 13 13 11 8 8 11 12 11 6 7 13 15 16 18 19 20 22 22 23 25 26 26 24 26 29 28 26 28 30 30 31 33 32 32 33 32 33 32 33 34 33 34 36 35 34 32 31 32 32 30 28 27 25 23 22 19 18 19 17 16 16 13 10 9 10 11 10 9 8
10 14 14 13 14 17 17 14 14 13 9 8 9 12 16 17 16 15 14 11 7 6 8 11 10 6 5 10 12 16 18 19 21 21 22 23 24 30 32 27 25 28 28 26 27 30 32 32 33 33 33 34 33 33 33 32 34 33 35 38 37 36 34 32 33 34 32 30 29 28 27 25 21 19 20 19 16 14 14 13 10 10 10 10 10 9
9 14 15 14 14 13 13 12 13 14 11 8 10 11 13 14 15 16 14 11 8 8 9 11 10 7 7 10 10 17 21 19 20 20 20 22 24 31 36 31 28 30 28 28 30 31 33 35 34 34 34 34 34 34 33 33 34 34 36 38 39 37 35 34 34 35 35 33 32 31 29 28 24 21 21 20 17 14 13 13 12 10 9 10 11 10
7 12 14 14 13 10 9 11 12 14 12 9 11 14 11 9 11 12 12 10 10 9 9 10 10 8 6 8 11 14 20 20 22 23 20 22 26 29 34 33 30 33 32 31 32 32 34 35 34 34 34 34 33 34 35 34 35 36 36 38 39 39 38 36 36 37 37 35 34 32 31 30 27 23 21 21 20 16 13 13 12 10 8 9 10 11
6 7 10 13 12 9 10 11 12 13 12 9 11 14 12 11 9 8 8 8 10 10 9 11 10 8 7 8 10 11 14 17 20 21 20 25 29 30 35 37 31 32 34 33 33 33 34 34 34 34 34 34 34 34 35 34 34 36 37 39 40 40 40 38 38 38 39 37 36 34 32 31 29 24 21 21 21 19 16 14 14 13 11 10 10 11
12 10 9 9 10 12 12 11 13 13 10 7 10 12 11 11 8 5 6 6 8 9 11 14 14 11 8 7 8 9 11 13 15 18 19 27 34 35 37 38 35 35 35 35 35 34 34 34 34 34 35 35 35 34 34 35 34 36 38 40 41 41 41 41 40 40 40 39 38 36 34 32 30 27 23 21 20 21 20 18 17 16 16 14 12 11
14 13 10 8 9 13 13 10 12 12 10 8 9 10 8 8 7 5 6 7 8 8 9 14 17 15 11 7 8 8 9 13 13 16 22 27 34 40 40 38 39 40 37 35 35 33 33 34 34 35 36 36 37 35 35 36 35 36 39 41 42 42 42 43 42 42 41 41 40 38 36 34 32 30 26 23 21 21 22 21 19 18 18 17 15 12
12 12 11 11 10 12 12 9 9 10 10 11 10 9 8 7 6 7 7 7 8 9 9 12 15 14 11 8 12 12 9 11 12 11 20 31 36 40 42 42 40 39 37 36 35 34 34 35 35 36 37 37 38 37 36 37 37 37 39 42 43 44 44 44 44 43 43 43 42 40 38 36 34 32 29 27 24 22 22 22 21 20 19 18 16 14
8 11 14 13 10 12 13 8 7 8 8 10 10 8 8 7 7 8 8 7 8 9 12 15 13 11 9 9 14 17 14 10 13 16 18 30 40 44 42 41 40 38 37 37 36 35 35 36 37 39 39 39 39 39 38 38 39 39 39 42 45 45 45 45 46 45 44 43 43 41 40 38 37 35 32 30 28 25 24 23 23 22 21 19 17 15
7 7 10 12 10 12 15 12 10 9 8 11 11 9 9 7 7 7 6 7 8 8 12 15 12 9 7 6 11 17 18 15 15 20 21 21 34 47 44 39 40 39 37 37 37 36 36 38 42 43 41 40 41 42 40 39 40 40 41 43 46 46 46 46 47 47 45 44 43 42 42 41 39 38 35 33 31 28 27 25 24 23 22 22 20 18
10 6 1 5 8 10 14 14 13 12 9 9 10 9 9 8 8 7 8 10 9 8 9 10 9 8 6 7 10 13 17 20 18 17 17 18 27 40 43 40 40 39 37 36 36 37 36 38 43 45 44 43 43 44 42 40 41 42 43 44 46 46 47 48 48 48 46 44 43 42 42 42 41 40 38 36 34 31 29 27 26 25 24 23 21 19
7 7 7 7 8 9 10 11 13 13 9 6 9 10 9 10 10 8 10 12 12 10 7 7 8 8 7 8 11 13 14 18 19 17 14 19 26 32 39 40 38 38 38 37 36 38 37 38 42 44 45 45 44 42 42 42 42 44 45 46 47 46 47 48 49 48 47 45 44 43 42 42 41 41 40 38 36 34 32 30 28 27 25 24 22 19
7 9 11 12 10 9 9 8 9 13 12 8 8 8 9 12 11 8 7 8 10 10 7 8 11 10 9 7 9 15 15 14 17 18 17 18 21 27 35 41 40 39 40 40 39 39 39 39 41 41 41 43 43 44 45 45 44 45 46 47 48 49 48 48 49 49 47 46 45 45 44 43 42 41 40 39 38 36 34 32 31 29 27 26 25 22
9 8 10 12 11 7 4 7 10 11 13 12 12 10 8 9 9 8 7 7 9 9 7 10 13 11 9 7 8 14 15 12 13 18 19 16 13 19 27 39 43 38 39 42 40 38 40 41 41 41 41 42 44 47 47 45 43 43 44 45 47 50 50 49 48 48 47 46 46 46 45 44 43 41 40 39 38 36 35 34 32 31 29 27 27 25
8 7 8 11 12 11 6 6 7 8 10 12 13 13 10 7 7 8 8 7 8 8 7 10 11 9 8 7 9 12 15 14 14 14 18 17 14 17 23 31 39 36 38 45 41 38 41 42 42 43 43 43 46 48 47 44 42 41 41 42 45 46 46 46 47 48 47 47 47 46 45 45 44 42 41 40 38 36 36 35 34 33 32 29 28 27
6 6 7 10 12 11 7 5 7 8 9 10 11 11 10 8 7 7 8 9 8 7 7 8 8 7 7 9 10 9 13 17 16 12 12 16 20 23 24 25 30 35 39 42 40 38 39 39 40 42 42 43 44 45 46 45 42 41 40 41 43 44 43 44 46 47 47 47 46 46 46 45 44 44 42 41 39 37 36 36 35 34 33 31 29 28
4 5 7 9 9 8 9 9 10 10 10 10 10 10 10 10 9 8 8 9 10 8 7 8 8 7 6 5 9 11 12 16 15 11 10 15 21 25 25 24 22 30 39 43 40 38 38 36 36 39 40 40 40 42 46 46 44 43 42 41 41 43 43 43 44 45 46 46 46 46 46 45 44 44 43 42 40 39 38 36 36 35 33 32 30 29
7 5 7 9 9 10 14 15 15 15 16 15 12 11 13 11 9 8 7 8 10 10 10 9 8 9 6 4 8 11 13 12 12 12 12 16 21 23 25 25 22 23 33 43 43 39 38 38 37 37 39 40 39 42 46 47 46 45 44 42 40 42 44 44 43 44 45 45 45 45 45 45 44 44 44 43 42 41 40 38 37 36 34 33 31 30
8 4 7 8 9 11 16 18 18 17 15 13 11 12 14 11 8 9 8 8 9 10 11 9 8 10 7 7 11 7 4 7 11 14 13 14 18 22 23 25 25 23 25 34 42 43 41 42 42 39 40 41 40 44 47 46 46 45 44 43 41 42 44 44 43 42 44 45 46 46 45 44 44 44 44 44 43 42 41 38 37 37 36 34 32 30
6 4 5 7 7 8 10 12 12 12 11 10 10 12 16 17 14 13 11 8 8 11 12 9 7 9 7 5 9 6 3 5 5 7 13 15 16 18 19 22 27 30 30 29 33 44 46 44 44 42 42 43 41 42 45 46 45 45 45 43 41 41 42 42 42 42 43 45 45 46 46 46 45 44 44 44 43 42 39 37 36 36 37 36 33 31
6 5 6 7 7 7 7 4 4 6 7 7 10 14 16 17 15 13 10 8 8 10 14 9 6 9 8 4 8 9 7 7 6 3 9 11 10 10 6 8 16 27 37 33 29 44 51 46 45 43 42 44 43 40 42 45 45 44 44 44 42 42 41 41 41 41 42 43 43 45 46 47 46 45 45 44 43 40 38 36 35 34 35 36 34 32
6 6 8 10 10 10 10 8 10 10 10 9 11 15 15 14 15 12 8 8 7 6 10 9 8 11 8 3 10 14 10 5 6 7 7 9 7 6 13 15 8 14 33 36 31 40 47 45 44 43 43 44 43 40 42 45 46 44 44 45 44 42 41 40 41 41 41 42 41 43 45 47 47 45 45 44 42 39 37 36 35 34 34 35 34 34
6 8 12 15 16 17 17 18 17 14 13 14 14 17 17 15 17 14 9 10 9 7 8 11 12 13 9 4 10 15 17 9 8 13 16 22 19 15 22 27 19 3 26 34 26 29 40 45 44 42 44 46 44 41 42 43 45 45 44 44 44 42 40 40 41 41 42 41 41 43 45 46 46 45 44 43 41 40 38 37 36 34 34 34 34 34
7 9 13 16 18 20 20 20 21 17 15 17 16 18 19 17 17 15 13 14 11 8 10 14 18 19 12 4 10 12 16 14 17 21 23 24 23 21 23 26 27 18 8 13 8 7 19 35 44 43 44 45 43 41 40 40 41 41 41 42 42 40 39 40 41 42 42 43 42 43 44 44 44 43 43 42 41 41 39 38 37 36 34 34 34 34
7 9 13 16 17 20 20 19 20 20 18 18 19 18 18 18 18 17 16 16 14 14 16 17 20 21 11 5 9 9 11 16 19 21 23 24 22 23 22 21 25 26 22 25 26 24 19 10 26 38 43 45 45 42 39 38 39 39 39 39 40 40 38 39 41 42 42 44 44 44 44 43 43 43 43 42 42 42 42 39 38 37 36 36 35 34
5 9 12 13 13 16 18 18 19 21 19 19 19 18 17 18 19 18 17 16 14 16 18 18 20 15 4 6 7 8 11 15 17 16 16 20 21 22 22 21 22 23 25 27 26 23 25 21 7 10 21 28 35 39 36 35 37 37 36 37 38 39 38 38 42 43 44 44 44 44 44 44 44 43 43 44 43 43 43 41 39 39 38 37 36 35
3 8 11 10 10 12 14 17 18 19 19 20 20 19 18 18 17 16 15 14 14 15 17 18 16 7 4 7 10 11 11 10 11 12 11 13 17 19 20 20 22 23 24 25 25 23 21 19 16 9 3 6 15 26 28 28 31 33 34 35 36 38 37 37 40 43 44 43 42 43 44 44 44 44 44 44 44 43 44 43 41 40 39 38 38 37
4 6 8 9 9 10 14 16 15 16 16 15 15 16 18 18 18 18 17 18 18 15 13 13 7 2 8 9 10 11 9 7 8 11 11 11 14 16 18 19 20 21 22 22 22 22 19 14 11 9 9 9 8 19 22 22 26 29 31 33 34 35 36 36 38 41 43 42 42 43 44 45 45 45 45 45 45 44 44 44 43 41 41 40 39 38
8 8 7 7 6 9 13 13 12 13 12 10 10 11 12 13 15 17 17 18 18 16 14 15 9 2 5 7 9 10 9 10 9 10 14 14 13 14 16 17 18 18 19 19 19 19 18 15 12 8 7 11 8 14 21 22 25 26 28 30 31 32 35 35 36 39 42 42 42 43 44 45 45 46 46 45 45 45 44 45 45 43 42 41 39 39
11 10 8 5 5 9 11 9 10 10 10 10 10 8 10 10 10 12 15 17 17 16 15 15 15 13 5 4 6 8 10 10 8 12 15 15 15 15 15 16 18 18 17 17 17 17 18 16 13 12 10 11 12 9 14 18 23 24 24 27 29 30 33 35 35 38 42 42 42 42 43 45 46 46 46 45 45 46 45 45 46 45 42 40 39 39
10 11 8 6 6 8 8 8 9 7 8 12 8 10 12 8 7 10 12 14 11 9 10 12 15 18 12 5 7 10 12 10 4 13 18 17 17 18 16 16 17 18 17 18 17 17 18 16 13 12 11 9 11 12 13 15 21 23 23 27 30 30 32 35 35 37 41 42 42 42 43 45 46 46 46 46 46 46 46 46 46 46 44 40 38 37
10 8 8 8 7 7 8 9 9 8 10 11 5 8 9 6 7 7 6 5 9 15 15 13 15 18 18 17 16 15 16 13 3 9 19 21 19 19 17 16 17 17 17 18 17 16 17 16 14 14 14 12 10 11 13 16 21 24 25 29 33 32 33 35 36 37 41 42 43 43 44 45 46 46 46 46 47 47 47 47 46 46 45 42 37 35
13 9 6 7 7 7 9 9 7 9 8 4 2 6 8 6 6 6 6 3 9 18 19 15 13 15 17 19 21 19 15 11 6 6 18 23 21 21 20 18 19 19 19 19 19 19 18 17 18 18 17 16 15 14 15 17 21 27 30 31 34 35 36 38 39 40 42 44 45 44 44 45 45 46 46 46 47 47 47 47 47 46 45 44 39 35
15 11 6 6 8 8 8 7 7 8 4 2 4 7 10 9 8 6 6 4 6 16 20 16 13 14 15 18 21 18 11 5 3 8 19 23 22 22 21 21 21 21 20 19 19 21 22 21 20 19 16 15 15 14 17 20 22 29 36 37 37 37 39 42 43 44 46 47 46 45 44 44 44 46 46 46 47 47 46 46 46 46 45 45 42 36
10 9 7 7 10 11 10 8 7 4 1 5 7 8 11 11 9 5 5 2 8 16 18 16 15 14 16 18 18 13 8 6 8 15 21 22 21 21 21 21 22 23 22 22 20 21 23 23 22 20 17 17 16 14 16 20 24 29 37 41 40 39 40 43 44 45 46 46 45 44 43 44 44 45 46 46 46 45 45 44 44 44 44 45 43 39
6 7 7 8 9 10 11 10 7 2 2 7 11 11 11 11 7 4 3 2 10 15 15 15 15 14 15 16 13 10 11 13 16 20 23 22 21 21 22 22 23 22 21 22 21 21 23 24 24 23 20 20 19 16 14 17 22 27 33 40 42 41 41 43 44 43 43 43 44 43 43 43 44 44 44 45 44 43 41 41 42 42 43 44 44 41
3 4 6 7 7 8 9 9 8 3 2 11 15 10 8 7 5 2 4 7 11 14 14 14 14 14 15 16 13 12 16 19 20 20 21 22 22 22 22 24 24 23 21 20 20 20 23 25 26 25 23 21 20 18 14 14 21 27 30 37 43 42 40 40 41 41 41 42 42 42 42 43 43 42 42 41 42 42 38 36 37 40 41 43 42 41
5 3 2 3 4 6 7 8 7 3 4 13 14 8 6 6 3 4 9 11 11 12 14 14 14 14 16 17 17 18 19 20 20 19 20 21 21 21 22 24 25 25 24 22 21 21 23 25 26 25 24 21 21 20 16 14 19 27 29 35 44 44 38 36 38 40 41 41 41 40 40 41 41 41 41 39 39 41 39 34 34 36 40 41 40 39
5 5 2 1 1 3 4 3 3 3 5 11 10 5 4 6 6 8 11 12 12 13 13 15 15 14 16 18 20 22 22 21 19 19 20 21 20 20 22 24 26 26 25 24 23 23 23 24 25 25 23 21 21 21 18 15 18 26 29 34 42 43 37 35 37 40 41 41 42 41 39 39 39 40 40 38 35 37 39 37 35 36 38 40 39 38
6 8 5 3 3 3 4 4 3 3 6 10 9 6 6 6 7 10 11 13 14 13 13 15 17 17 17 18 19 21 22 22 21 21 22 22 22 22 24 26 26 26 26 26 24 23 23 23 24 24 23 21 19 19 17 16 20 25 29 33 39 41 37 35 38 40 41 42 42 41 40 39 38 38 39 38 36 36 38 39 38 37 37 38 39 38
8 12 10 5 5 6 5 5 5 7 11 12 8 6 6 7 8 11 12 14 14 14 14 16 18 18 18 18 19 19 20 21 23 23 22 23 23 23 27 29 26 26 28 28 25 24 24 23 22 22 22 22 19 16 16 16 19 24 29 32 38 41 38 36 38 41 42 42 42 41 40 39 37 37 37 36 36 36 39 39 38 37 37 38 39 38
6 11 9 6 7 8 5 4 9 14 16 12 7 7 9 10 11 12 14 15 16 17 17 17 18 19 19 18 18 19 19 20 22 23 22 23 22 23 27 29 27 26 29 29 27 27 26 25 24 22 22 22 19 15 15 15 15 21 29 33 37 40 39 38 39 42 42 42 42 41 41 40 39 37 36 36 37 37 37 37 37 37 38 39 39 38
4 8 8 6 8 7 6 8 15 19 15 8 8 11 13 13 14 16 16 17 18 18 18 18 19 19 19 18 18 20 20 19 20 21 22 21 21 22 24 27 27 27 29 30 28 27 27 28 27 24 22 21 18 14 14 13 12 17 28 34 36 39 40 38 40 43 43 42 42 41 41 41 40 39 38 38 37 35 34 35 36 37 38 40 41 40
5 6 7 7 8 7 6 9 17 17 9 6 12 16 16 15 17 18 17 17 18 18 18 19 19 19 19 20 20 20 21 19 18 19 20 21 21 21 23 26 26 25 29 31 28 26 29 31 28 24 21 18 15 12 12 13 11 14 26 32 34 37 39 38 40 42 43 42 41 40 41 41 41 40 38 37 36 34 34 35 35 34 36 38 39 39
4 5 5 6 6 5 6 10 14 10 7 10 17 19 18 18 19 19 18 18 18 19 19 20 20 20 20 20 19 20 21 20 18 18 19 20 21 20 22 25 24 24 28 31 28 28 30 30 28 25 20 14 11 11 13 16 14 15 23 29 32 35 35 35 39 41 41 40 40 40 41 42 41 41 39 36 38 39 38 37 35 34 34 36 37 36
4 5 5 5 5 6 9 13 13 10 10 16 20 20 19 20 19 18 19 19 18 19 20 20 21 21 21 20 19 19 21 21 18 17 19 20 20 20 20 21 21 22 26 29 30 32 32 30 28 26 21 14 11 11 13 16 16 16 21 26 30 33 32 30 34 38 40 40 39 39 42 42 41 41 40 38 40 42 41 39 38 36 33 34 34 34
Wind_Direction
209 219 217 220 226 224 222 226 237 249 256 270 279 276 266 252 246 240 240 244 214 192 200 201 211 208 193 186 170 169 174 173 170 171 179 182 180 187 195 196 195 194 194 191 191 190 186 183 183 181 179 177 177 177 179 178 175 179 180 176 181 182 179 183 182 176 174 175 171 165 174 176 163 164 171 171 169 167 186 208 198 184 185 175 167 160
207 229 226 222 229 231 233 229 234 250 256 264 275 281 279 271 263 251 241 234 226 232 215 193 210 203 161 152 177 181 180 177 174 174 180 182 181 185 193 201 201 204 203 191 190 191 186 184 183 182 180 179 178 177 179 179 177 181 181 178 183 183 184 188 186 181 179 181 177 169 175 176 167 170 170 168 171 170 187 206 193 183 187 178 170 163
205 230 233 229 231 231 240 240 232 240 251 259 263 264 267 270 277 268 255 242 227 244 242 205 210 199 158 155 181 195 191 185 180 178 177 176 178 181 189 201 200 205 212 194 189 192 188 185 184 182 181 181 180 178 179 180 178 182 182 181 184 184 186 191 189 186 183 185 184 174 172 173 172 173 170 169 167 171 196 210 201 191 189 181 177 174
212 226 230 232 236 232 234 242 240 236 240 249 253 257 254 255 271 269 253 254 240 242 259 239 221 204 172 161 168 189 192 186 179 177 179 179 182 190 193 195 194 205 218 201 189 190 188 186 185 182 182 182 181 179 180 180 179 183 183 184 186 184 188 193 191 190 188 186 182 172 168 171 176 174 171 174 168 171 200 212 204 196 190 184 184 185
232 227 220 222 232 238 234 233 239 241 236 236 238 250 256 251 259 265 267 269 262 246 259 266 252 214 192 183 179 186 188 180 174 175 178 180 185 192 195 195 196 209 219 202 189 190 188 187 186 184 183 183 183 182 182 181 181 184 185 186 188 186 189 194 192 192 191 187 177 168 167 172 181 178 172 177 173 173 190 200 199 195 190 188 188 187
240 238 227 217 219 230 238 233 230 235 242 240 232 237 254 264 266 268 275 277 267 241 237 253 259 226 203 212 196 182 184 178 174 180 177 178 186 189 192 193 193 203 211 200 190 191 191 190 188 186 185 185 186 185 184 184 183 185 187 188 189 187 190 194 194 192 192 187 178 172 170 170 178 183 178 178 178 178 179 183 200 201 190 191 192 190
237 238 238 232 223 221 230 236 230 231 240 246 238 228 237 254 266 270 276 277 267 263 239 235 247 236 230 242 203 175 185 180 171 180 179 175 183 191 195 193 189 196 203 201 195 193 195 193 188 187 186 187 187 186 186 186 185 187 189 190 190 189 191 194 195 193 192 189 182 177 174 170 173 184 184 177 177 184 180 179 203 211 196 195 195 193
224 231 236 235 236 230 226 230 225 229 238 240 250 251 234 235 248 257 266 271 267 277 268 247 244 234 224 249 224 178 180 180 170 175 177 176 182 189 193 194 193 196 198 199 199 197 197 194 191 189 189 189 189 187 187 187 187 189 191 193 192 191 193 195 197 195 193 193 189 183 179 176 175 182 187 179 172 184 186 179 199 219 210 198 192 195
213 221 233 232 237 239 231 235 225 225 240 241 246 261 264 251 247 248 249 255 261 267 265 250 244 246 225 231 235 199 184 180 176 176 174 179 189 189 188 191 193 195 197 200 200 197 196 195 193 192 191 191 190 187 188 188 189 190 193 195 194 194 195 197 199 197 197 197 194 190 185 183 182 182 188 184 172 177 186 180 190 209 220 215 200 199
241 222 232 232 235 236 232 242 239 230 236 244 248 259 272 269 262 265 257 247 254 253 251 249 241 249 251 221 221 222 205 186 178 180 174 176 189 193 189 190 191 192 196 200 200 197 197 195 194 194 194 193 191 190 189 189 189 190 194 197 197 198 198 199 202 201 200 200 199 197 193 191 190 186 190 192 181 177 182 184 187 192 205 227 220 206
280 283 267 245 241 245 235 232 242 247 247 243 248 254 262 262 257 275 280 262 254 247 240 245 244 244 256 242 219 221 219 206 189 182 172 171 183 189 189 189 190 192 195 197 198 198 196 195 194 195 196 195 192 191 191 191 191 190 194 199 199 201 201 201 204 204 202 203 203 203 201 199 198 193 192 196 195 189 186 187 191 190 194 214 224 215
265 269 268 256 249 254 251 234 230 243 249 239 242 245 246 251 245 238 249 253 253 252 240 236 240 243 244 245 245 231 210 216 215 187 169 169 179 182 184 188 191 192 193 193 195 197 196 194 194 194 195 196 193 191 192 193 194 193 195 200 201 201 203 202 205 206 205 205 207 207 206 206 205 201 197 197 202 203 199 197 200 200 200 210 222 222
238 239 242 244 235 237 249 247 224 224 229 229 233 237 234 233 234 228 225 233 240 245 247 237 233 239 242 238 248 252 224 205 227 219 174 170 177 179 181 186 189 190 189 191 193 194 195 194 195 196 196 196 195 194 195 194 194 196 197 201 203 203 204 204 205 208 207 207 209 210 210 209 209 208 204 202 204 209 211 210 209 211 214 218 224 224
224 217 219 231 222 211 226 238 226 215 216 228 228 222 227 225 223 229 224 229 244 244 241 237 233 237 242 232 231 245 252 214 210 229 205 179 175 176 181 184 184 187 188 188 189 190 193 195 195 197 197 198 198 196 195 196 197 198 199 202 204 205 205 204 205 208 210 210 211 212 212 212 213 212 211 210 209 212 217 219 217 219 223 226 228 225
264 230 203 217 209 192 208 227 241 242 224 225 230 222 227 232 231 239 232 224 237 247 236 228 228 234 235 225 216 226 242 239 222 224 218 190 171 171 177 182 180 184 187 184 187 188 189 193 196 197 199 199 200 199 196 196 199 200 201 203 205 205 205 204 206 209 211 212 212 213 214 214 215 216 216 216 215 215 218 223 225 224 226 229 232 231
289 284 144 220 221 194 196 206 228 255 256 224 220 224 225 233 243 251 259 261 262 265 249 228 221 226 228 233 224 218 223 228 238 240 215 192 180 172 172 178 179 182 186 183 186 189 187 193 199 198 198 200 201 201 199 197 200 202 202 204 205 206 206 205 207 210 212 213 213 213 215 216 217 218 218 219 219 218 219 223 228 229 227 228 231 235
296 295 351 334 280 248 224 208 208 227 250 242 220 220 222 234 249 255 260 272 279 277 266 252 237 219 214 227 223 221 220 212 219 238 226 203 195 175 166 175 179 180 184 185 185 187 188 194 202 201 199 202 201 200 199 198 201 203 203 205 206 206 206 206 207 210 212 213 213 214 215 216 217 219 219 220 221 221 221 224 228 229 229 226 224 229
331 305 313 313 289 262 252 271 258 226 227 249 239 219 212 223 237 254 262 259 260 264 261 260 256 233 214 213 206 213 221 214 204 213 229 224 200 176 166 171 179 183 185 185 186 187 188 193 200 200 198 200 200 201 200 198 200 203 204 205 206 205 207 209 209 210 212 213 213 214 215 216 218 219 220 221 222 222 222 223 225 226 228 228 223 221
333 308 295 299 304 311 273 271 283 253 227 240 265 266 244 232 228 228 246 252 249 254 253 255 261 255 237 213 196 205 205 213 215 204 216 229 200 181 176 173 180 188 182 179 183 184 186 193 197 196 196 197 199 203 202 199 200 204 204 204 205 207 210 212 211 210 212 214 215 216 216 217 218 219 220 220 221 222 221 221 224 224 226 229 229 223
323 302 289 294 306 322 307 237 252 260 233 227 252 269 266 267 262 234 227 235 248 256 253 252 252 251 257 245 220 202 181 195 230 217 209 215 191 189 201 190 185 185 176 174 180 182 185 193 196 194 196 197 200 203 202 199 200 204 205 202 202 206 208 209 211 211 212 214 216 217 217 218 218 218 219 219 219 220 221 221 222 225 225 226 229 228
298 284 282 287 300 306 289 247 243 252 246 224 225 247 258 259 266 268 250 227 229 247 250 255 255 242 247 259 254 222 175 182 212 227 217 213 199 194 211 213 191 177 173 174 177 180 183 189 192 192 195 196 198 202 201 199 200 205 208 205 201 201 202 204 209 211 212 213 215 216 217 218 218 217 218 218 218 218 220 221 221 224 226 226 226 228
288 278 277 277 283 276 257 261 263 260 273 270 242 237 248 244 238 255 261 237 222 230 242 250 261 261 245 255 272 250 202 179 188 209 222 220 213 203 208 217 197 174 172 173 175 179 182 185 189 190 193 193 193 199 201 199 199 202 207 207 202 199 199 200 203 208 210 212 212 214 217 219 218 217 217 217 217 217 219 220 220 221 224 225 225 224
341 297 276 273 268 273 278 283 290 296 303 299 281 255 243 237 237 244 251 252 237 223 231 244 251 264 275 327 312 261 219 191 179 189 211 219 219 215 210 210 204 187 178 174 175 178 179 182 186 187 190 191 192 198 203 201 199 200 204 207 205 200 199 200 201 205 209 209 210 213 215 217 218 217 216 217 218 218 219 220 220 221 222 222 222 221
353 276 257 272 269 277 282 282 288 295 293 283 275 267 253 242 257 274 275 285 272 237 226 228 234 250 272 342 340 320 244 216 193 183 204 221 216 216 217 208 200 197 193 185 180 178 177 181 183 185 189 191 194 199 202 201 200 200 202 206 207 203 200 199 200 202 206 209 211 212 213 215 216 218 218 218 220 220 220 219 220 221 221 220 218 217
336 283 278 277 264 264 263 260 264 266 264 258 253 263 259 248 253 271 285 298 290 270 255 238 227 239 254 318 308 288 226 236 241 189 201 219 217 210 216 215 201 193 198 203 188 175 176 180 181 185 191 193 195 199 201 200 198 199 202 204 208 207 202 198 196 198 205 209 210 209 212 215 215 217 219 219 219 219 216 213 215 219 220 219 217 216
297 288 302 276 257 255 245 240 270 272 279 277 266 273 272 262 261 270 281 272 256 274 275 260 243 239 236 295 301 280 226 218 308 325 186 209 221 181 168 239 220 194 194 202 188 172 176 182 183 187 192 193 193 194 198 199 197 198 201 203 207 208 203 198 195 196 201 205 205 206 210 214 215 216 219 219 218 216 211 207 208 213 217 218 217 214
286 277 278 270 268 270 273 302 325 319 316 305 290 293 295 296 297 295 288 271 267 303 287 270 278 262 247 359 357 340 326 258 299 348 67 39 8 83 54 11 321 203 190 191 187 176 176 180 184 189 193 194 193 193 195 198 198 199 201 202 206 207 202 198 196 196 198 199 199 203 207 212 214 215 217 218 215 211 208 205 205 209 214 216 215 211
276 266 263 265 267 271 278 291 299 299 296 290 290 293 294 302 305 299 295 295 310 339 300 287 299 279 262 26 29 0 353 359 5 8 31 33 25 35 36 25 9 255 184 180 185 181 176 178 182 188 194 194 194 196 197 198 199 201 202 202 203 204 201 198 196 197 199 198 197 201 205 210 213 212 212 214 212 208 207 207 206 207 212 214 213 210
268 263 262 262 263 266 271 278 284 285 281 278 279 281 282 288 290 282 281 288 299 305 282 290 302 284 269 21 48 18 355 10 34 23 16 20 25 28 33 32 22 15 102 118 79 104 158 176 183 187 193 195 195 197 197 198 198 199 201 201 202 202 201 199 197 197 199 199 200 202 204 206 208 209 209 210 209 207 207 207 207 207 210 213 213 210
267 264 264 266 265 264 265 271 278 278 271 268 267 267 271 277 280 279 280 283 285 285 277 278 285 279 277 15 47 45 11 10 34 34 13 4 12 23 29 33 27 22 31 38 33 36 52 121 179 189 194 196 196 197 197 196 196 197 199 200 201 201 200 199 198 198 199 201 202 203 203 203 204 206 207 207 208 208 206 206 207 206 208 213 214 212
264 261 260 265 267 264 265 269 273 271 266 264 263 263 267 273 274 273 274 277 279 279 279 276 272 272 306 4 357 43 48 23 24 35 20 0 0 15 23 25 24 20 20 24 25 26 30 36 62 185 198 200 198 196 196 196 195 197 199 200 200 200 200 200 200 200 201 203 203 203 202 202 203 204 205 206 208 208 206 205 206 207 208 211 215 215
257 266 262 257 258 262 263 261 262 265 263 259 258 259 262 265 267 266 265 267 266 266 270 269 263 269 16 9 358 22 46 40 26 27 25 8 1 8 16 18 17 15 14 18 19 15 15 21 26 29 356 257 208 193 194 197 198 199 200 201 201 200 199 200 200 201 202 203 203 203 203 202 202 203 204 206 208 209 207 205 205 207 208 209 213 216
212 249 259 255 253 258 260 260 264 265 257 250 249 251 254 257 261 262 259 257 258 263 266 261 251 21 19 12 14 15 21 36 33 31 30 19 9 9 12 13 13 12 11 13 12 6 360 357 3 19 15 342 258 206 203 212 212 208 205 204 203 201 200 201 201 201 202 204 204 204 204 203 202 203 205 206 207 208 207 205 205 207 208 209 211 214
228 234 247 257 261 259 256 260 266 260 250 249 257 262 268 272 271 269 264 257 254 255 260 258 256 320 32 35 21 1 356 358 9 42 44 26 15 13 10 10 11 8 6 7 5 356 348 344 333 320 344 350 310 222 213 225 228 219 211 209 208 204 202 202 202 202 203 204 205 205 204 204 203 204 205 206 206 207 207 206 205 206 208 209 210 213
247 243 242 238 254 264 258 253 252 247 246 256 275 320 328 304 303 308 293 273 261 261 272 277 278 276 253 105 42 354 342 342 8 53 48 29 23 18 9 8 7 3 358 357 354 344 337 338 329 303 305 338 331 264 226 231 233 226 216 213 212 209 206 205 204 203 204 204 205 206 205 204 204 204 205 205 205 206 207 207 207 206 207 209 209 212
257 255 253 238 244 260 255 241 240 247 261 259 273 6 2 326 340 339 290 269 280 318 348 350 327 310 306 352 19 356 339 328 18 58 39 24 21 16 8 5 0 356 353 349 344 336 327 328 323 302 293 313 321 296 268 243 230 226 219 213 213 212 209 208 207 204 203 204 205 207 207 206 205 205 205 205 205 206 208 209 208 207 207 207 208 210
246 252 259 248 237 245 248 246 247 258 268 265 277 16 9 347 358 347 276 273 3 11 11 11 359 345 346 359 2 353 336 313 290 53 29 15 10 6 3 1 354 350 347 340 335 330 321 312 302 288 276 274 279 275 267 251 232 226 220 213 213 212 208 209 211 207 204 204 206 208 208 208 206 206 205 205 205 207 208 209 208 207 206 206 206 207
239 222 234 248 240 239 247 251 252 249 252 256 351 351 347 351 347 315 272 289 16 10 3 7 8 355 353 357 352 343 329 295 250 40 19 5 359 357 354 351 348 345 341 337 335 327 312 298 292 288 280 275 268 251 249 252 238 226 222 216 213 211 208 207 210 210 207 206 207 208 209 209 207 206 206 205 206 207 208 209 209 208 207 206 205 204
251 218 197 233 244 240 238 241 246 245 245 50 17 327 331 347 351 322 272 261 5 3 360 3 1 351 352 354 347 341 333 296 270 8 5 357 352 350 347 345 342 340 336 334 330 320 308 299 294 290 281 272 266 254 253 259 246 228 221 215 211 211 209 206 207 210 210 209 207 207 208 209 208 207 207 207 207 207 207 208 208 208 207 208 207 205
259 223 202 220 236 240 236 239 246 236 80 29 357 331 328 333 338 312 244 242 2 356 355 356 349 345 349 350 347 347 351 347 336 335 340 346 347 344 342 340 337 336 336 333 325 315 309 305 299 293 279 265 261 257 254 259 256 238 222 213 210 211 210 207 207 209 210 209 206 206 208 208 208 208 208 208 207 207 207 207 208 208 207 208 209 208
245 218 215 219 231 240 236 237 247 220 60 357 339 337 330 313 295 269 242 330 345 340 347 352 344 338 341 342 343 343 336 332 327 322 326 337 341 339 338 336 332 330 331 330 326 320 312 305 299 294 282 269 266 263 254 257 260 248 226 212 210 211 210 208 207 207 208 207 204 204 207 208 207 207 208 208 208 206 206 208 209 209 208 208 210 210
266 221 213 215 227 240 239 242 247 211 45 346 333 336 337 308 262 262 330 327 325 329 336 342 342 341 339 335 330 323 319 321 321 321 325 332 335 336 335 333 330 328 327 325 323 320 315 306 300 295 283 270 265 264 264 266 262 252 234 215 209 210 210 208 206 205 206 206 203 203 205 206 206 207 207 208 208 207 205 206 208 210 210 210 210 212
336 314 227 213 231 239 240 249 254 233 16 357 346 347 4 352 320 321 324 316 315 321 323 326 334 341 338 332 326 320 317 317 317 319 321 326 330 333 333 331 330 330 331 330 326 325 321 312 304 298 287 273 265 263 268 275 263 252 240 221 211 209 209 207 204 204 205 205 202 202 203 204 205 206 206 206 207 207 207 205 204 207 210 210 210 212
360 356 343 8 349 265 247 253 261 258 329 351 350 337 344 350 334 318 315 314 315 314 311 313 318 325 328 325 321 319 317 315 315 315 317 320 325 329 331 331 330 331 334 334 331 329 326 317 311 303 288 274 269 266 269 282 271 252 240 226 213 207 205 205 204 203 204 204 202 201 203 204 204 205 205 205 205 205 205 204 202 203 208 210 210 210
11 2 337 308 316 306 286 293 305 299 318 337 346 341 329 329 325 317 312 310 312 311 308 306 305 308 315 316 315 315 314 312 313 314 315 319 322 327 331 332 330 330 334 335 332 329 327 322 318 310 293 277 272 268 267 278 273 253 238 226 213 204 201 204 203 201 202 204 202 201 202 203 203 204 204 204 203 201 201 201 202 203 207 210 209 209
359 355 343 317 318 321 299 301 339 348 337 337 354 9 346 325 321 318 311 307 308 306 304 303 300 300 304 307 308 309 308 310 312 312 314 317 319 324 329 330 330 329 331 334 334 332 329 324 319 312 298 282 272 265 259 262 261 250 237 224 211 201 199 202 203 200 201 202 201 201 202 202 202 203 202 202 202 202 201 201 201 203 205 208 208 208
4 358 346 327 332 333 316 343 358 344 331 334 2 13 351 337 328 320 310 305 303 301 300 300 298 297 298 298 299 301 303 307 309 309 311 314 316 321 326 328 330 329 329 334 337 334 333 331 326 319 307 289 273 261 254 256 257 247 233 219 207 199 198 202 203 200 200 201 200 200 201 201 201 201 199 198 200 201 201 201 200 201 204 207 207 207
348 352 344 331 332 319 290 319 338 332 330 355 17 356 341 334 327 320 312 306 301 297 298 299 298 296 294 292 293 296 300 302 305 306 307 310 313 318 320 324 329 330 328 333 337 334 336 338 333 328 317 298 279 261 252 260 267 243 223 210 202 197 197 202 204 201 199 200 200 200 200 201 200 200 198 197 198 199 199 200 200 201 205 208 209 208
278 318 335 328 322 308 293 324 337 334 333 359 353 339 330 323 317 313 309 306 301 298 298 297 296 295 291 288 289 292 295 299 303 304 303 305 309 315 316 319 326 330 330 333 336 333 335 338 336 332 326 306 282 265 258 262 261 228 214 208 202 198 199 201 202 201 199 198 198 199 199 199 199 198 197 195 196 196 196 198 199 201 204 208 211 211
285 315 334 324 314 312 322 335 339 332 313 317 324 324 320 317 313 308 306 305 300 299 300 298 296 294 290 286 286 287 290 294 298 300 299 299 302 308 313 315 321 329 333 336 337 333 333 339 341 340 340 325 294 277 267 260 247 214 203 203 200 197 200 204 203 200 199 197 197 198 199 198 197 196 195 192 193 195 195 195 196 198 201 205 209 210
320 326 329 315 301 306 321 329 332 323 306 308 315 316 315 314 312 308 308 306 303 301 300 297 296 295 291 287 284 282 285 287 290 293 295 294 296 303 308 310 316 329 336 340 341 338 336 342 347 350 355 355 329 295 265 256 250 223 204 201 200 198 201 205 204 201 198 196 197 199 198 196 195 195 193 191 193 196 195 192 193 195 198 203 206 207
Height
1474 1477 1477 1476 1474 1470 1467 1466 1465 1462 1460 1457 1454 1453 1452 1453 1452 1444 1439 1429 1424 1442 1450 1450 1457 1461 1466 1466 1465 1472 1477 1479 1483 1486 1489 1492 1494 1497 1498 1500 1502 1505 1508 1511 1514 1516 1518 1520 1522 1524 1526 1529 1531 1533 1534 1537 1540 1541 1543 1546 1547 1549 1551 1552 1554 1556 1559 1561 1563 1566 1568 1570 1572 1574 1577 1579 1581 1582 1582 1582 1583 1584 1585 1586 1587 1588
1473 1477 1473 1469 1467 1464 1462 1461 1462 1462 1460 1460 1459 1458 1455 1453 1449 1439 1435 1429 1424 1436 1442 1441 1451 1457 1462 1466 1465 1469 1474 1477 1480 1484 1486 1488 1492 1495 1496 1499 1502 1505 1508 1510 1513 1514 1516 1518 1520 1523 1525 1527 1529 1531 1533 1535 1538 1540 1542 1544 1546 1548 1550 1551 1553 1555 1558 1560 1562 1565 1567 1569 1571 1573 1575 1577 1580 1581 1581 1581 1583 1584 1585 1586 1587 1588
1474 1474 1467 1463 1461 1460 1460 1458 1459 1462 1462 1462 1461 1461 1461 1455 1449 1440 1433 1427 1425 1435 1440 1438 1446 1453 1456 1462 1466 1469 1472 1475 1478 1480 1483 1486 1489 1491 1493 1497 1500 1505 1507 1509 1511 1513 1514 1517 1519 1521 1523 1526 1528 1530 1532 1534 1537 1539 1541 1543 1544 1546 1548 1550 1553 1555 1557 1559 1561 1564 1566 1568 1571 1572 1575 1577 1579 1580 1580 1581 1583 1584 1584 1585 1586 1587
1472 1469 1461 1459 1458 1459 1461 1459 1458 1460 1461 1463 1462 1463 1462 1454 1453 1451 1440 1430 1426 1432 1438 1437 1440 1446 1450 1457 1465 1469 1472 1475 1478 1479 1480 1483 1487 1489 1491 1494 1498 1504 1508 1508 1509 1510 1512 1515 1517 1519 1521 1524 1527 1529 1530 1532 1535 1537 1539 1541 1543 1545 1547 1549 1552 1554 1556 1559 1561 1564 1566 1568 1570 1572 1574 1576 1578 1579 1580 1580 1582 1583 1584 1585 1586 1587
1464 1458 1453 1455 1457 1458 1461 1460 1459 1462 1462 1460 1459 1461 1460 1453 1453 1452 1442 1434 1431 1433 1435 1438 1445 1444 1445 1455 1461 1463 1468 1472 1474 1476 1479 1482 1486 1490 1491 1493 1499 1507 1510 1507 1506 1508 1510 1513 1515 1517 1519 1522 1525 1527 1528 1530 1533 1535 1537 1539 1541 1544 1546 1547 1550 1553 1555 1558 1560 1563 1565 1568 1569 1571 1573 1575 1576 1578 1579 1580 1581 1582 1583 1584 1585 1586
1458 1451 1448 1453 1456 1457 1460 1459 1458 1461 1463 1460 1456 1455 1456 1452 1451 1449 1444 1442 1447 1449 1439 1441 1460 1455 1443 1448 1451 1453 1459 1465 1469 1471 1475 1479 1483 1488 1491 1493 1500 1507 1509 1506 1505 1507 1508 1511 1513 1515 1517 1520 1522 1524 1527 1529 1531 1533 1535 1537 1540 1542 1544 1546 1549 1552 1554 1556 1558 1561 1563 1566 1567 1569 1571 1573 1575 1577 1578 1579 1580 1581 1583 1584 1585 1586
1452 1448 1447 1451 1454 1455 1459 1459 1455 1456 1463 1464 1453 1447 1450 1452 1453 1452 1450 1451 1459 1458 1440 1437 1460 1465 1453 1448 1445 1448 1455 1459 1463 1466 1469 1475 1480 1484 1487 1491 1496 1500 1502 1503 1504 1505 1507 1509 1510 1512 1514 1517 1519 1522 1525 1527 1529 1531 1533 1535 1538 1540 1542 1545 1547 1550 1553 1554 1556 1559 1561 1563 1565 1567 1569 1571 1574 1575 1577 1579 1580 1580 1582 1583 1584 1585
1448 1450 1450 1450 1452 1454 1457 1458 1453 1452 1461 1463 1449 1443 1447 1450 1454 1455 1454 1458 1457 1452 1444 1437 1447 1462 1464 1454 1442 1445 1454 1457 1461 1466 1467 1470 1475 1479 1482 1486 1490 1492 1496 1499 1501 1503 1505 1506 1506 1508 1511 1514 1517 1520 1523 1525 1527 1529 1531 1533 1536 1539 1541 1543 1545 1548 1550 1552 1554 1557 1559 1562 1564 1565 1567 1570 1573 1575 1576 1578 1579 1580 1581 1582 1584 1585
1444 1450 1452 1451 1454 1455 1454 1452 1448 1450 1457 1456 1447 1444 1445 1446 1450 1450 1454 1458 1454 1456 1461 1448 1444 1461 1467 1452 1440 1442 1451 1458 1459 1461 1464 1465 1469 1474 1478 1482 1485 1487 1492 1496 1498 1499 1501 1503 1504 1506 1509 1512 1515 1517 1520 1522 1525 1527 1529 1531 1534 1537 1539 1541 1543 1546 1548 1550 1552 1555 1557 1560 1562 1564 1566 1568 1571 1573 1575 1577 1578 1579 1580 1581 1583 1584
1443 1446 1447 1449 1454 1453 1451 1447 1444 1449 1453 1449 1446 1447 1446 1446 1447 1449 1453 1457 1457 1464 1470 1457 1449 1463 1467 1450 1441 1443 1446 1452 1454 1452 1455 1459 1463 1467 1472 1477 1481 1483 1488 1492 1495 1497 1498 1500 1502 1504 1507 1511 1513 1515 1518 1520 1523 1526 1527 1529 1531 1534 1537 1539 1541 1544 1546 1548 1551 1553 1555 1558 1560 1562 1565 1567 1569 1572 1574 1576 1577 1579 1580 1580 1582 1583
1446 1445 1445 1446 1449 1447 1445 1446 1444 1446 1447 1446 1450 1452 1453 1451 1449 1454 1456 1456 1466 1471 1466 1457 1450 1460 1468 1452 1440 1439 1437 1436 1441 1446 1449 1453 1459 1463 1467 1472 1476 1479 1483 1488 1491 1494 1496 1497 1499 1502 1505 1508 1511 1513 1516 1519 1521 1524 1525 1526 1529 1531 1534 1537 1539 1541 1544 1546 1549 1551 1554 1556 1558 1561 1563 1565 1567 1569 1572 1574 1575 1577 1579 1580 1580 1582
1451 1451 1448 1445 1445 1444 1444 1446 1445 1444 1445 1450 1455 1457 1462 1462 1458 1464 1465 1465 1479 1479 1461 1452 1448 1455 1467 1456 1437 1430 1425 1424 1428 1434 1442 1447 1452 1458 1463 1466 1471 1475 1479 1483 1487 1489 1492 1494 1496 1499 1502 1505 1507 1510 1513 1516 1519 1521 1522 1524 1526 1529 1532 1534 1536 1539 1542 1544 1546 1549 1552 1554 1556 1559 1561 1563 1565 1567 1569 1572 1573 1575 1577 1578 1579 1581
1452 1451 1448 1446 1445 1445 1449 1452 1450 1448 1449 1454 1457 1460 1470 1475 1474 1480 1479 1475 1480 1473 1454 1448 1449 1453 1457 1447 1434 1427 1420 1420 1420 1421 1429 1437 1443 1451 1457 1462 1466 1471 1475 1478 1481 1484 1487 1490 1493 1495 1499 1501 1504 1506 1509 1512 1516 1519 1520 1521 1523 1526 1528 1531 1534 1536 1539 1541 1544 1546 1549 1552 1554 1557 1559 1561 1563 1565 1567 1569 1571 1573 1575 1576 1578 1579
1452 1447 1444 1447 1446 1444 1449 1455 1457 1455 1454 1457 1457 1461 1473 1480 1487 1491 1484 1478 1476 1464 1448 1443 1447 1453 1450 1438 1430 1426 1419 1416 1417 1418 1422 1427 1434 1443 1450 1456 1462 1466 1471 1474 1476 1480 1483 1486 1489 1491 1494 1497 1499 1502 1505 1509 1513 1516 1518 1518 1520 1522 1525 1528 1530 1533 1536 1538 1541 1544 1547 1550 1552 1554 1557 1559 1561 1563 1565 1567 1569 1571 1573 1574 1576 1577
1460 1455 1445 1444 1444 1442 1446 1450 1452 1451 1452 1453 1449 1454 1465 1469 1478 1483 1475 1473 1471 1458 1446 1442 1446 1452 1448 1434 1422 1419 1416 1413 1415 1416 1417 1422 1429 1436 1443 1450 1456 1461 1465 1469 1472 1475 1478 1481 1484 1487 1490 1493 1495 1499 1502 1505 1510 1514 1515 1515 1517 1519 1522 1525 1528 1530 1533 1536 1538 1541 1544 1547 1549 1552 1554 1557 1559 1561 1563 1565 1567 1569 1571 1572 1574 1576
1463 1456 1441 1438 1436 1437 1444 1445 1445 1450 1453 1448 1443 1451 1460 1456 1459 1465 1461 1455 1453 1453 1447 1440 1439 1436 1430 1422 1411 1412 1414 1412 1415 1413 1412 1419 1425 1431 1438 1444 1451 1456 1460 1465 1467 1470 1474 1477 1480 1483 1486 1489 1492 1495 1498 1502 1506 1510 1512 1513 1514 1517 1519 1522 1524 1526 1529 1533 1536 1538 1541 1544 1547 1549 1552 1554 1557 1559 1561 1563 1565 1567 1569 1570 1572 1574
1472 1460 1443 1443 1440 1435 1440 1441 1441 1451 1455 1448 1446 1452 1451 1446 1449 1459 1461 1450 1449 1461 1453 1436 1432 1426 1423 1422 1412 1410 1414 1412 1414 1415 1412 1414 1419 1425 1433 1440 1446 1450 1454 1459 1462 1465 1469 1472 1475 1479 1482 1484 1488 1492 1494 1497 1502 1506 1508 1509 1511 1514 1516 1519 1521 1523 1526 1530 1533 1535 1538 1541 1544 1546 1549 1551 1554 1556 1559 1561 1563 1565 1567 1569 1571 1572
1479 1472 1452 1448 1449 1439 1436 1440 1439 1441 1446 1449 1450 1446 1441 1443 1447 1455 1466 1463 1462 1469 1455 1437 1434 1429 1430 1431 1417 1412 1417 1414 1413 1415 1413 1411 1412 1419 1428 1435 1440 1444 1448 1453 1456 1461 1464 1467 1471 1475 1478 1481 1484 1488 1490 1493 1498 1503 1505 1507 1508 1510 1513 1515 1518 1521 1524 1527 1529 1532 1535 1538 1540 1543 1546 1548 1551 1554 1556 1558 1560 1562 1564 1566 1569 1571
1482 1483 1465 1450 1451 1445 1438 1446 1449 1441 1439 1445 1446 1438 1440 1454 1457 1456 1468 1473 1472 1473 1460 1444 1437 1429 1424 1422 1414 1414 1418 1416 1414 1413 1414 1412 1409 1415 1423 1430 1435 1438 1442 1447 1452 1457 1460 1463 1467 1470 1475 1478 1481 1485 1488 1492 1497 1502 1505 1505 1506 1507 1509 1512 1516 1518 1521 1523 1526 1528 1531 1534 1537 1540 1543 1546 1548 1551 1553 1556 1558 1560 1562 1564 1566 1568
1485 1491 1480 1458 1453 1453 1448 1452 1460 1453 1443 1443 1446 1441 1441 1450 1453 1451 1455 1460 1467 1472 1465 1453 1443 1432 1419 1407 1405 1408 1410 1414 1416 1412 1412 1412 1411 1416 1421 1424 1428 1433 1436 1442 1448 1452 1455 1459 1463 1466 1471 1475 1479 1483 1487 1491 1496 1501 1504 1504 1504 1506 1508 1511 1513 1515 1517 1520 1522 1525 1528 1531 1534 1537 1540 1542 1546 1548 1550 1553 1555 1557 1559 1561 1563 1565
1487 1492 1490 1471 1461 1464 1462 1457 1459 1458 1451 1447 1450 1450 1448 1447 1447 1448 1446 1442 1452 1466 1466 1461 1453 1434 1412 1398 1397 1399 1401 1407 1411 1410 1409 1408 1410 1415 1418 1418 1421 1427 1432 1438 1443 1448 1452 1456 1460 1464 1468 1471 1476 1481 1485 1488 1493 1499 1504 1504 1502 1503 1505 1508 1509 1511 1514 1516 1519 1522 1524 1527 1530 1533 1536 1539 1542 1545 1547 1550 1552 1554 1556 1559 1561 1563
1489 1491 1491 1482 1474 1471 1465 1455 1451 1452 1451 1449 1447 1447 1449 1448 1448 1457 1458 1442 1438 1451 1456 1458 1457 1434 1404 1393 1394 1393 1395 1399 1402 1406 1409 1407 1409 1413 1415 1417 1418 1422 1429 1434 1439 1444 1448 1454 1458 1462 1465 1469 1473 1477 1481 1484 1487 1493 1500 1502 1501 1501 1502 1503 1505 1507 1510 1512 1515 1518 1520 1523 1526 1530 1533 1536 1539 1541 1544 1546 1549 1551 1554 1556 1558 1560
1492 1493 1494 1489 1480 1472 1464 1456 1452 1452 1451 1451 1448 1443 1441 1442 1444 1456 1463 1448 1436 1440 1442 1448 1454 1434 1401 1391 1394 1389 1387 1391 1395 1402 1406 1407 1408 1410 1412 1415 1417 1421 1426 1430 1434 1439 1444 1449 1455 1459 1462 1466 1470 1472 1477 1480 1481 1486 1493 1499 1500 1499 1498 1499 1501 1503 1505 1508 1511 1514 1517 1520 1523 1526 1529 1532 1535 1538 1540 1543 1545 1548 1551 1553 1555 1557
1497 1496 1497 1493 1481 1472 1465 1459 1456 1454 1454 1455 1451 1444 1439 1439 1443 1448 1451 1448 1444 1441 1438 1446 1456 1438 1406 1394 1395 1389 1386 1388 1392 1397 1403 1406 1407 1409 1411 1413 1415 1420 1424 1428 1431 1434 1439 1445 1450 1455 1459 1463 1466 1469 1473 1477 1479 1482 1488 1494 1497 1496 1495 1496 1497 1499 1501 1504 1507 1510 1514 1517 1520 1523 1526 1528 1531 1533 1536 1539 1542 1545 1547 1550 1552 1554
1504 1500 1500 1500 1495 1487 1478 1471 1466 1461 1458 1456 1451 1448 1443 1438 1442 1447 1447 1452 1458 1448 1437 1446 1453 1435 1410 1401 1400 1396 1394 1394 1393 1396 1401 1404 1405 1407 1409 1410 1413 1417 1421 1425 1428 1430 1435 1441 1446 1451 1455 1458 1462 1465 1469 1473 1476 1479 1483 1487 1492 1494 1493 1493 1495 1497 1497 1499 1503 1506 1509 1512 1515 1519 1521 1524 1527 1530 1533 1536 1538 1541 1543 1546 1549 1551
1508 1505 1506 1508 1507 1501 1489 1482 1478 1472 1466 1461 1455 1453 1449 1443 1446 1452 1453 1458 1461 1451 1440 1444 1446 1430 1413 1409 1407 1403 1400 1399 1398 1398 1400 1404 1404 1405 1409 1411 1411 1413 1417 1421 1425 1428 1432 1437 1441 1446 1450 1453 1457 1461 1464 1468 1472 1476 1478 1482 1486 1490 1491 1491 1492 1494 1494 1496 1500 1502 1505 1508 1511 1514 1517 1520 1524 1527 1530 1533 1535 1537 1539 1542 1545 1548
1509 1507 1508 1508 1506 1499 1488 1481 1480 1479 1479 1475 1468 1462 1458 1455 1454 1457 1462 1461 1457 1456 1453 1445 1439 1432 1423 1421 1421 1415 1408 1404 1403 1401 1403 1406 1407 1407 1410 1412 1411 1411 1414 1418 1422 1426 1430 1434 1438 1442 1446 1449 1454 1458 1461 1464 1468 1471 1473 1476 1482 1486 1488 1488 1489 1491 1492 1493 1496 1498 1501 1503 1506 1510 1513 1516 1520 1524 1527 1530 1532 1534 1536 1538 1541 1544
1511 1510 1507 1505 1503 1496 1488 1484 1481 1482 1484 1480 1475 1471 1466 1464 1463 1464 1469 1464 1458 1469 1469 1449 1439 1438 1429 1426 1429 1426 1421 1416 1413 1410 1411 1413 1414 1413 1413 1414 1413 1413 1414 1418 1423 1426 1429 1432 1435 1439 1443 1447 1451 1455 1458 1460 1464 1467 1469 1473 1478 1482 1484 1484 1485 1487 1488 1490 1492 1494 1496 1499 1502 1506 1509 1513 1517 1520 1524 1527 1530 1532 1534 1536 1538 1541
1511 1510 1503 1500 1499 1493 1488 1485 1482 1482 1483 1479 1477 1475 1470 1468 1467 1466 1466 1461 1460 1472 1470 1452 1448 1445 1433 1429 1433 1432 1431 1428 1423 1421 1421 1422 1422 1420 1418 1419 1420 1419 1419 1422 1426 1427 1429 1432 1434 1436 1440 1444 1448 1452 1455 1458 1461 1464 1467 1470 1474 1477 1479 1480 1482 1484 1485 1486 1488 1489 1492 1495 1499 1502 1506 1510 1513 1517 1520 1523 1526 1529 1531 1533 1535 1537
1512 1510 1503 1500 1498 1492 1488 1486 1483 1482 1481 1477 1474 1473 1470 1468 1467 1465 1463 1459 1460 1464 1458 1451 1452 1447 1435 1433 1434 1435 1438 1435 1430 1429 1429 1430 1430 1426 1425 1426 1428 1427 1426 1426 1427 1428 1430 1433 1435 1438 1439 1441 1445 1448 1451 1454 1457 1460 1464 1467 1470 1473 1475 1478 1479 1481 1482 1483 1484 1486 1489 1492 1495 1499 1502 1506 1509 1512 1516 1520 1523 1526 1528 1530 1532 1534
1516 1512 1506 1502 1500 1495 1489 1488 1487 1483 1479 1476 1472 1469 1468 1468 1467 1466 1464 1461 1461 1461 1455 1452 1452 1445 1437 1435 1433 1436 1441 1440 1436 1435 1436 1437 1437 1433 1432 1432 1432 1432 1431 1430 1430 1430 1431 1433 1435 1438 1440 1442 1444 1446 1449 1452 1454 1457 1461 1463 1466 1469 1472 1474 1476 1477 1479 1480 1481 1484 1487 1489 1492 1495 1498 1502 1505 1508 1512 1516 1519 1522 1525 1527 1529 1531
1516 1514 1507 1505 1506 1500 1491 1488 1487 1481 1477 1475 1473 1470 1469 1469 1467 1464 1462 1460 1461 1460 1456 1453 1451 1446 1442 1439 1437 1439 1442 1441 1440 1440 1440 1442 1442 1440 1439 1438 1436 1435 1434 1433 1433 1433 1434 1436 1437 1439 1441 1442 1444 1445 1447 1451 1453 1455 1458 1460 1463 1466 1469 1471 1472 1474 1476 1478 1480 1482 1484 1486 1489 1492 1495 1498 1501 1504 1508 1512 1516 1518 1521 1524 1526 1528
1513 1515 1511 1508 1508 1501 1492 1487 1483 1481 1482 1479 1470 1466 1466 1465 1464 1462 1459 1456 1455 1455 1455 1453 1449 1447 1445 1443 1443 1446 1446 1446 1446 1445 1444 1445 1446 1445 1444 1443 1442 1440 1438 1437 1437 1437 1437 1438 1440 1443 1445 1447 1448 1449 1450 1452 1454 1455 1456 1459 1461 1463 1466 1468 1470 1472 1474 1476 1478 1480 1481 1484 1486 1488 1491 1494 1497 1500 1504 1508 1512 1514 1517 1520 1523 1525
1507 1511 1511 1510 1509 1502 1492 1487 1487 1490 1491 1480 1464 1459 1462 1462 1462 1462 1458 1454 1452 1451 1449 1445 1441 1442 1445 1446 1449 1452 1451 1450 1450 1450 1449 1449 1449 1448 1447 1447 1447 1445 1444 1443 1442 1441 1440 1439 1441 1443 1446 1449 1451 1451 1452 1453 1455 1455 1456 1458 1460 1462 1464 1466 1468 1470 1471 1473 1475 1477 1479 1481 1483 1485 1487 1490 1494 1497 1500 1504 1507 1510 1514 1517 1520 1522
1502 1504 1504 1505 1509 1502 1491 1491 1501 1502 1491 1473 1463 1462 1464 1462 1463 1463 1459 1454 1451 1450 1448 1445 1444 1443 1442 1444 1449 1453 1453 1453 1454 1455 1454 1454 1452 1450 1449 1449 1449 1448 1448 1447 1446 1445 1443 1442 1442 1442 1444 1446 1447 1447 1448 1450 1452 1454 1455 1457 1460 1462 1463 1465 1466 1467 1468 1471 1472 1474 1476 1478 1480 1483 1485 1488 1491 1494 1496 1499 1503 1506 1510 1513 1516 1519
1504 1503 1499 1499 1503 1503 1496 1497 1502 1496 1479 1467 1467 1469 1469 1467 1466 1468 1465 1458 1455 1456 1456 1455 1454 1449 1442 1443 1449 1454 1455 1454 1455 1456 1456 1456 1454 1453 1452 1451 1450 1450 1450 1448 1448 1447 1445 1444 1444 1443 1443 1444 1444 1445 1446 1448 1450 1452 1453 1455 1457 1459 1461 1463 1464 1464 1465 1468 1470 1471 1473 1475 1478 1480 1482 1485 1488 1490 1493 1496 1499 1502 1506 1509 1513 1516
1502 1503 1501 1499 1498 1500 1500 1494 1489 1484 1477 1474 1477 1478 1476 1475 1474 1475 1473 1465 1463 1465 1462 1459 1459 1457 1453 1452 1454 1457 1457 1456 1454 1456 1457 1456 1455 1454 1453 1452 1452 1451 1450 1449 1448 1447 1446 1445 1444 1444 1443 1443 1443 1444 1444 1446 1449 1450 1451 1452 1453 1455 1457 1460 1461 1461 1462 1464 1466 1468 1470 1472 1475 1477 1479 1482 1484 1486 1489 1492 1495 1499 1502 1506 1509 1512
1494 1497 1502 1504 1499 1495 1498 1497 1492 1489 1485 1483 1485 1483 1479 1476 1475 1475 1476 1471 1470 1472 1468 1462 1462 1464 1464 1463 1461 1459 1458 1455 1454 1456 1458 1457 1456 1454 1453 1452 1452 1451 1450 1449 1447 1446 1444 1443 1442 1443 1443 1443 1444 1444 1444 1445 1446 1447 1449 1450 1450 1452 1453 1455 1457 1457 1457 1459 1462 1464 1466 1469 1471 1474 1476 1478 1480 1482 1485 1489 1492 1495 1499 1502 1505 1508
1491 1490 1497 1507 1504 1494 1495 1499 1495 1488 1485 1487 1487 1483 1479 1477 1474 1474 1477 1477 1475 1475 1473 1468 1467 1467 1468 1468 1466 1461 1459 1457 1455 1456 1458 1458 1456 1454 1453 1452 1452 1451 1450 1448 1446 1444 1442 1440 1440 1440 1441 1441 1441 1442 1443 1444 1444 1445 1446 1447 1448 1449 1449 1449 1451 1451 1452 1454 1457 1460 1463 1465 1468 1471 1473 1475 1477 1480 1483 1486 1489 1493 1496 1499 1502 1505
1494 1492 1494 1502 1505 1497 1492 1491 1485 1479 1484 1489 1486 1481 1480 1478 1476 1479 1484 1483 1479 1478 1477 1473 1471 1470 1470 1471 1470 1466 1465 1466 1463 1460 1460 1460 1458 1457 1455 1453 1452 1451 1449 1447 1445 1442 1440 1438 1437 1436 1437 1438 1437 1438 1439 1440 1440 1441 1441 1442 1443 1444 1444 1444 1445 1446 1448 1451 1454 1457 1459 1462 1465 1467 1469 1472 1474 1478 1481 1484 1487 1490 1493 1496 1499 1502
1495 1494 1493 1495 1499 1496 1492 1486 1478 1478 1487 1489 1484 1482 1482 1478 1477 1482 1486 1484 1482 1481 1479 1476 1475 1473 1472 1473 1474 1473 1472 1472 1470 1466 1462 1460 1459 1457 1456 1454 1452 1450 1448 1446 1443 1441 1438 1435 1433 1433 1433 1433 1433 1433 1433 1433 1434 1435 1435 1436 1437 1438 1438 1439 1441 1444 1447 1449 1452 1454 1456 1458 1461 1464 1467 1470 1473 1476 1478 1481 1484 1487 1490 1493 1495 1499
1496 1493 1492 1493 1495 1495 1491 1484 1478 1481 1490 1490 1484 1482 1482 1480 1482 1485 1485 1485 1485 1483 1481 1479 1477 1475 1474 1474 1476 1476 1475 1473 1471 1468 1464 1461 1459 1458 1456 1453 1451 1448 1446 1444 1441 1439 1436 1432 1430 1429 1429 1429 1429 1429 1429 1428 1428 1428 1429 1430 1431 1432 1433 1436 1439 1443 1445 1446 1449 1451 1453 1455 1458 1461 1465 1468 1470 1473 1475 1478 1481 1484 1486 1489 1492 1494
1502 1496 1493 1493 1494 1494 1491 1487 1486 1488 1490 1488 1485 1484 1484 1485 1488 1488 1487 1486 1485 1483 1482 1481 1478 1476 1475 1474 1474 1475 1475 1473 1472 1469 1466 1464 1461 1459 1457 1454 1450 1447 1444 1441 1440 1438 1435 1431 1428 1426 1425 1425 1425 1425 1424 1423 1423 1423 1424 1424 1425 1427 1431 1434 1436 1440 1442 1443 1446 1449 1451 1453 1455 1458 1462 1464 1466 1469 1472 1474 1477 1480 1482 1485 1488 1491
1505 1503 1501 1499 1498 1497 1495 1493 1495 1495 1492 1489 1489 1489 1488 1488 1489 1489 1487 1486 1484 1483 1482 1480 1478 1477 1476 1474 1473 1472 1472 1472 1471 1469 1466 1464 1462 1460 1457 1453 1450 1447 1443 1441 1439 1437 1434 1430 1427 1425 1423 1422 1421 1421 1420 1419 1419 1419 1420 1420 1421 1424 1429 1431 1433 1436 1438 1440 1443 1446 1448 1450 1453 1455 1458 1461 1463 1466 1468 1471 1473 1476 1478 1481 1484 1487
1506 1507 1507 1504 1500 1499 1498 1497 1496 1495 1492 1490 1490 1489 1489 1489 1489 1488 1487 1486 1485 1484 1482 1480 1479 1477 1476 1475 1473 1471 1469 1468 1467 1466 1463 1460 1458 1457 1454 1451 1449 1446 1443 1441 1438 1436 1433 1430 1427 1424 1421 1419 1418 1417 1416 1415 1415 1416 1416 1417 1418 1421 1425 1427 1429 1431 1433 1436 1439 1442 1445 1447 1450 1452 1454 1457 1459 1461 1464 1466 1469 1472 1475 1477 1481 1484
1507 1506 1506 1503 1499 1496 1495 1493 1493 1492 1491 1490 1489 1489 1489 1488 1488 1487 1487 1485 1484 1484 1482 1481 1479 1477 1476 1475 1472 1470 1469 1467 1465 1463 1461 1458 1456 1453 1451 1449 1447 1446 1443 1440 1437 1434 1431 1428 1426 1423 1419 1416 1415 1414 1413 1412 1411 1412 1413 1414 1415 1417 1421 1423 1425 1426 1429 1431 1435 1438 1441 1444 1446 1448 1450 1453 1456 1458 1460 1462 1465 1468 1470 1473 1477 1480
1508 1507 1506 1503 1501 1499 1495 1491 1491 1492 1491 1489 1489 1489 1489 1488 1487 1487 1486 1485 1484 1483 1481 1480 1478 1476 1475 1474 1472 1470 1468 1466 1464 1462 1459 1457 1456 1453 1450 1447 1446 1445 1444 1441 1437 1434 1431 1427 1424 1421 1417 1413 1412 1411 1410 1409 1409 1409 1410 1410 1412 1414 1417 1419 1420 1422 1424 1427 1431 1435 1437 1439 1442 1444 1447 1449 1452 1454 1457 1459 1461 1464 1466 1469 1472 1475
1509 1508 1507 1505 1503 1501 1497 1494 1493 1492 1490 1489 1490 1490 1489 1488 1487 1486 1485 1484 1483 1481 1480 1478 1477 1475 1473 1472 1471 1470 1467 1465 1463 1461 1459 1458 1456 1454 1451 1449 1446 1446 1444 1441 1437 1434 1430 1426 1422 1419 1416 1412 1410 1409 1408 1407 1407 1407 1408 1408 1409 1411 1413 1415 1416 1418 1420 1423 1426 1430 1433 1435 1437 1440 1442 1444 1447 1450 1453 1455 1457 1459 1461 1463 1466 1469
1509 1508 1507 1506 1504 1500 1497 1495 1494 1492 1489 1488 1490 1490 1489 1488 1487 1486 1485 1483 1481 1480 1478 1477 1475 1474 1472 1471 1470 1468 1466 1463 1461 1460 1459 1458 1456 1454 1453 1450 1447 1445 1443 1440 1436 1434 1431 1427 1423 1418 1414 1411 1408 1407 1406 1405 1405 1405 1406 1406 1407 1409 1410 1412 1413 1414 1416 1419 1422 1426 1429 1431 1433 1435 1438 1440 1443 1446 1448 1450 1452 1455 1457 1460 1462 1465
1507 1507 1506 1506 1505 1502 1499 1498 1498 1496 1493 1490 1490 1490 1489 1488 1486 1484 1483 1482 1480 1478 1477 1475 1473 1472 1471 1469 1468 1466 1464 1461 1460 1459 1459 1457 1456 1454 1452 1450 1447 1445 1443 1439 1436 1433 1431 1427 1422 1417 1413 1409 1407 1405 1404 1403 1403 1403 1403 1403 1405 1407 1409 1410 1411 1412 1414 1416 1419 1422 1424 1426 1428 1431 1433 1436 1438 1440 1442 1445 1448 1451 1454 1457 1459 1462
1506 1505 1505 1506 1506 1503 1500 1499 1499 1497 1495 1492 1490 1489 1488 1486 1485 1483 1482 1480 1479 1477 1475 1473 1472 1470 1468 1467 1466 1464 1462 1460 1458 1458 1457 1456 1455 1453 1452 1449 1447 1444 1442 1439 1436 1432 1429 1424 1419 1415 1410 1407 1405 1404 1403 1401 1400 1400 1400 1400 1402 1403 1405 1408 1411 1412 1412 1414 1417 1419 1420 1422 1424 1426 1429 1431 1432 1434 1437 1440 1444 1447 1450 1453 1456 1459